Location: Unspecified
(54.1780°N, 0.0000°E)
Time: 12:11:49
(UTC+00:00)

Vanguard 1 Rocket - All Passes

Search period start: 25 June 2019 00:00
Search period end: 05 July 2019 00:00
Orbit: 652 x 4224 km, 34.3° (Epoch: 24 June)

Date Brightness Start Highest point End Pass type
(mag) Time Alt. Az. Time Alt. Az. Time Alt. Az.
25 Jun - 14:02:29 10° S 14:12:46 16° SSE 14:20:53 10° ESE daylight
25 Jun - 16:25:04 10° SW 16:39:13 26° S 16:48:15 10° ESE daylight
25 Jun - 18:53:46 10° WSW 19:04:35 25° SSW 19:11:24 10° SE daylight
25 Jun - 21:25:51 10° SW 21:28:02 11° SW 21:29:58 10° SSW visible
26 Jun - 12:57:16 10° SSE 13:00:33 11° SE 13:03:39 10° SE daylight
26 Jun - 15:12:19 10° SSW 15:27:08 24° SSE 15:37:11 10° ESE daylight
26 Jun - 17:39:39 10° SW 17:53:17 29° S 18:01:35 10° SE daylight
26 Jun - 20:10:01 10° WSW 20:17:40 19° SSW 20:23:00 10° SSE daylight
27 Jun - 14:00:48 10° S 14:14:47 20° SSE 14:25:12 10° ESE daylight
27 Jun - 16:25:44 10° SW 16:41:29 30° S 16:51:15 10° ESE daylight
27 Jun - 18:55:25 10° WSW 19:06:52 26° SSW 19:14:01 10° SSE daylight
28 Jun - 12:51:32 10° S 13:02:24 15° SE 13:11:26 10° ESE daylight
28 Jun - 15:12:24 10° SSW 15:29:16 29° SSE 15:40:23 10° ESE daylight
28 Jun - 17:40:57 10° WSW 17:55:33 31° S 18:04:20 10° SE daylight
28 Jun - 20:12:14 10° WSW 20:19:47 18° SW 20:25:10 10° S daylight
29 Jun - 14:00:06 10° SSW 14:16:46 25° SSE 14:28:46 10° ESE daylight
29 Jun - 16:26:39 10° SW 16:43:41 33° S 16:54:07 10° ESE daylight
29 Jun - 18:57:11 10° WSW 19:09:02 26° SSW 19:16:30 10° SSE daylight
30 Jun - 12:49:25 10° S 13:04:12 20° SE 13:15:58 10° ESE daylight
30 Jun - 15:12:52 10° SW 15:31:22 32° SSE 15:43:21 10° ESE daylight
30 Jun - 17:42:22 10° WSW 17:57:44 32° SSW 18:06:58 10° SE daylight
30 Jun - 20:14:37 10° WSW 20:21:48 16° SW 20:27:03 10° S daylight
01 Jul - 11:41:47 10° SSE 11:51:45 14° SE 12:00:38 10° ESE daylight
01 Jul - 13:59:59 10° SSW 14:18:43 29° SSE 14:31:56 10° ESE daylight
01 Jul - 16:27:45 10° WSW 16:45:50 35° S 16:56:50 10° ESE daylight
01 Jul - 18:59:02 10° WSW 19:11:07 25° SSW 19:18:49 10° SSE daylight
02 Jul - 12:48:27 10° SSW 13:05:55 25° SSE 13:19:35 10° ESE daylight
02 Jul - 15:13:38 10° SW 15:33:24 36° S 15:46:10 10° ESE daylight
02 Jul - 17:43:53 10° WSW 17:59:50 32° SSW 18:09:28 10° SE daylight
02 Jul - 20:17:19 10° WSW 20:23:40 14° SW 20:28:33 10° SSW daylight
03 Jul - 11:38:58 10° S 11:53:16 19° SE 12:05:40 10° ESE daylight
03 Jul - 14:00:20 10° SW 14:20:35 33° SSE 14:34:52 10° ESE daylight
03 Jul - 16:29:01 10° WSW 16:47:54 37° S 16:59:27 10° SE daylight
03 Jul - 19:01:00 10° WSW 19:13:03 23° SW 19:20:57 10° SSE daylight
04 Jul - 10:34:15 10° SE 10:40:59 12° SE 10:47:26 10° ESE daylight
04 Jul - 12:48:13 10° SSW 13:07:36 29° SSE 13:22:45 10° ESE daylight
04 Jul - 15:14:38 10° SW 15:35:23 38° S 15:48:50 10° ESE daylight
04 Jul - 17:45:31 10° WSW 18:01:48 31° SSW 18:11:50 10° SSE daylight
04 Jul - 20:20:35 10° WSW 20:25:23 12° SW 20:29:23 10° SSW daylight
